Location: Penzberg
(47.7615°N, 11.3159°E)
Time: 02:06:47
(UTC+01:00)

ISS - Pass Details

Date: 11 November 2017
Orbit: 402 x 407 km, 51.6° (Epoch: 21 November)

Event Time Altitude Azimuth Distance (km) Brightness Sun altitude
Exits shadow 05:09:52 41° 23° (NNE) 599 -2.9 -21.0°
Drops below altitude 10° 05:12:43 10° 80° (E) 1,456 0.1 -20.5°
Sets 05:14:52 0° 88° (E) 2,315 1.6 -20.1°
